Radiation Dose measured at exhaust stack monitor of Fukushima Daiichi Nuclear Power Station
Date,Time,Unit 5 6 shared exhaust cylinders,Wind Direction,Wind Velocity(m/s)
2021/04/13,00:00,3.9,south,8.7
2021/04/13,00:10,3.9,south-southwest,10.3
2021/04/13,00:20,3.9,south-southwest,8.5
2021/04/13,00:30,3.7,south,8.8
2021/04/13,00:40,4.0,south,9.1
2021/04/13,00:50,4.0,south-southwest,8.6
2021/04/13,01:00,3.9,south-southwest,8.6
2021/04/13,01:10,3.9,south-southwest,8.5
2021/04/13,01:20,3.7,south-southwest,8.5
2021/04/13,01:30,4.0,south-southwest,7.5
2021/04/13,01:40,4.0,south-southwest,7.6
2021/04/13,01:50,4.0,south-southwest,7.5
2021/04/13,02:00,4.1,south,7.9
2021/04/13,02:10,4.1,south-southwest,7.2
2021/04/13,02:20,4.0,south-southwest,8.0
2021/04/13,02:30,3.9,south-southwest,7.1
2021/04/13,02:40,3.9,south-southwest,6.8
2021/04/13,02:50,3.9,south-southwest,6.6
2021/04/13,03:00,4.0,south-southwest,7.8
2021/04/13,03:10,4.0,south,8.8
2021/04/13,03:20,3.9,south-southwest,7.5
2021/04/13,03:30,4.0,south,8.9
2021/04/13,03:40,3.9,south-southwest,9.6
2021/04/13,03:50,3.8,south,9.4
2021/04/13,04:00,3.9,south,8.9
2021/04/13,04:10,3.9,south-southwest,8.3
2021/04/13,04:20,3.8,south,9.4
2021/04/13,04:30,4.0,south,9.0
2021/04/13,04:40,3.8,south,9.4
2021/04/13,04:50,3.9,south,9.8
2021/04/13,05:00,4.1,south-southwest,9.2
2021/04/13,05:10,4.1,south,9.1
2021/04/13,05:20,3.9,south-southwest,7.3
2021/04/13,05:30,3.9,south-southwest,9.4
2021/04/13,05:40,3.9,south,10.0
2021/04/13,05:50,4.1,south,8.3
2021/04/13,06:00,4.0,south,9.2
2021/04/13,06:10,3.9,south-southwest,9.0
2021/04/13,06:20,3.9,south,8.3
2021/04/13,06:30,3.8,south,8.7
2021/04/13,06:40,4.0,south-southwest,9.5
2021/04/13,06:50,3.9,south,10.2
2021/04/13,07:00,4.0,south-southwest,9.4
2021/04/13,07:10,3.9,south-southwest,9.9
2021/04/13,07:20,4.0,south-southwest,8.9
2021/04/13,07:30,3.9,south-southwest,11.3
2021/04/13,07:40,4.1,south,11.6
2021/04/13,07:50,3.9,south,15.0
2021/04/13,08:00,3.9,south,13.8
2021/04/13,08:10,4.1,south,11.4
2021/04/13,08:20,3.9,south,10.9
2021/04/13,08:30,4.0,south,8.9
2021/04/13,08:40,4.0,south,11.6
2021/04/13,08:50,3.9,south,14.7
2021/04/13,09:00,3.9,south,9.4
2021/04/13,09:10,3.9,south,10.5
2021/04/13,09:20,4.1,south,12.5
2021/04/13,09:30,3.8,south,8.1
2021/04/13,09:40,4.1,south,10.5
2021/04/13,09:50,3.9,south-southwest,8.3
2021/04/13,10:00,3.9,south,9.1
2021/04/13,10:10,3.9,south,11.3
2021/04/13,10:20,3.9,south,10.5
2021/04/13,10:30,3.9,south,11.6
2021/04/13,10:40,4.0,south,14.4
2021/04/13,10:50,4.1,south,11.6
2021/04/13,11:00,3.9,south,14.9
2021/04/13,11:10,4.0,south,12.7
2021/04/13,11:20,3.9,south,15.2
2021/04/13,11:30,3.9,south,12.4
2021/04/13,11:40,4.0,south,13.0
2021/04/13,11:50,4.0,south,15.2
2021/04/13,12:00,4.0,south,13.0
2021/04/13,12:10,4.0,south,11.9
2021/04/13,12:20,3.9,south,14.1
2021/04/13,12:30,4.0,south,13.0
2021/04/13,12:40,4.0,south,13.5
2021/04/13,12:50,4.0,south,11.3
2021/04/13,13:00,4.0,south,10.9
2021/04/13,13:10,3.9,south,11.3
2021/04/13,13:20,3.8,south,12.1
2021/04/13,13:30,4.1,south,10.5
2021/04/13,13:40,3.9,south,12.8
2021/04/13,13:50,3.8,south,11.8
2021/04/13,14:00,4.1,south,12.7
2021/04/13,14:10,3.9,south,10.8
2021/04/13,14:20,4.0,south,10.9
2021/04/13,14:30,3.8,south,8.5
2021/04/13,14:40,3.9,south,10.3
2021/04/13,14:50,3.9,south,13.0
2021/04/13,15:00,3.8,south,10.3
2021/04/13,15:10,4.0,south,11.3
2021/04/13,15:20,4.1,south,11.3
2021/04/13,15:30,4.1,south,13.0
2021/04/13,15:40,3.8,south,14.6
2021/04/13,15:50,4.0,south,11.0
2021/04/13,16:00,3.9,south,10.5
2021/04/13,16:10,4.0,south-southwest,11.9
2021/04/13,16:20,4.0,south,11.6
2021/04/13,16:30,4.0,south,11.8
2021/04/13,16:40,3.8,south,8.3
2021/04/13,16:50,3.9,south,12.4
2021/04/13,17:00,4.0,south,13.1
2021/04/13,17:10,4.0,south,10.8
2021/04/13,17:20,4.0,south,11.3
2021/04/13,17:30,4.0,south,13.0
2021/04/13,17:40,3.8,south,13.1
2021/04/13,17:50,3.8,south,11.6
2021/04/13,18:00,4.0,south,12.7
2021/04/13,18:10,4.1,south,13.3
2021/04/13,18:20,4.1,south,13.0
2021/04/13,18:30,3.9,south,12.7
2021/04/13,18:40,4.0,south,12.4
2021/04/13,18:50,3.9,south,13.6
2021/04/13,19:00,4.0,south,14.4
2021/04/13,19:10,3.9,south,13.3
2021/04/13,19:20,4.0,south,14.7
2021/04/13,19:30,3.9,south,14.2
2021/04/13,19:40,3.9,south,13.0
2021/04/13,19:50,3.7,south,13.3
2021/04/13,20:00,4.0,south,12.8
2021/04/13,20:10,3.8,south,11.6
2021/04/13,20:20,4.0,south,11.1
2021/04/13,20:30,4.0,south,13.0
2021/04/13,20:40,3.9,south,11.7
2021/04/13,20:50,3.8,south,10.7
2021/04/13,21:00,4.0,south,11.9
2021/04/13,21:10,3.8,south,12.2
2021/04/13,21:20,3.8,south-southwest,11.0
2021/04/13,21:30,3.7,south,12.0
2021/04/13,21:40,4.0,south,11.6
2021/04/13,21:50,3.9,south,12.0
2021/04/13,22:00,3.9,south,9.9
2021/04/13,22:10,4.0,south,10.2
2021/04/13,22:20,4.0,south,9.1
2021/04/13,22:30,3.7,south,8.2
2021/04/13,22:40,3.8,south,8.7
2021/04/13,22:50,3.9,south,8.6
2021/04/13,23:00,3.9,south,8.3
2021/04/13,23:10,3.9,south,8.4
2021/04/13,23:20,3.9,south,8.6
2021/04/13,23:30,4.0,south,6.1
2021/04/13,23:40,4.0,south,5.6
2021/04/13,23:50,3.9,south,6.8
